Aurora, IL

12:03 AM CDT on July 22, 2017 (GMT -0500)
Aurora Municipal

Weather History for KARR - January, 2014

Change the Weather History Date:

Friday, January 24, 2014

  Actual Average Record
Temperature  
Mean Temperature 10 °F 21 °F  
Max Temperature 28 °F 29 °F 43 °F (2010)
Min Temperature -8 °F 12 °F -17 °F (2008)
Degree Days  
Heating Degree Days 55 44  
Month to date heating degree days 900 1058  
Since 1 July heating degree days 3729 3707  
Cooling Degree Days 0 0  
Month to date cooling degree days 0 0  
Year to date cooling degree days 0 0  
Moisture  
Dew Point 10 °F    
Average Humidity 72    
Maximum Humidity 92    
Minimum Humidity 52    
Precipitation  
Precipitation T in 0.05 in 0.48 in (2010)
Month to date precipitation 0.80 1.05  
Year to date precipitation 0.80 1.05  
Sea Level Pressure  
Sea Level Pressure 29.86 in    
Wind  
Wind Speed 19 mph (SW)    
Max Wind Speed 33 mph    
Max Gust Speed 43 mph    
Visibility 6 miles    
Events Snow    
T = Trace of Precipitation, MM = Missing Value Source: NWS Daily Summary

Daily Weather History Graph

Daily Weather History Graph

Search for Another Location

Airport or City:

Trip Planner

Search our weather history database for the weather conditions in past years. The results will help you decide how hot, cold, wet, or windy it might be!

Date:

Astronomy

Jan. 24, 2014 Rise Set
Actual Time 7:13 AM CST 4:59 PM CST
Civil Twilight 6:43 AM CST 5:29 PM CST
Nautical Twilight 6:09 AM CST 6:03 PM CST
Astronomical Twilight 5:36 AM CST 6:36 PM CST
Moon 12:39 AM CST (1/24) 11:18 AM CST (1/24)
Length of Visible Light 10h 46m
Length of Day
9h 45m
Last Quarter, 44% of the Moon is Illuminated
Jan 24
Last Quarter
Jan 30
New
Feb 6
First Quarter
Feb 14
Full
Feb 22
Last Quarter

Hourly Weather History & Observations

Time (CST) Temp. Windchill Dew Point Humidity Pressure Visibility Wind Dir Wind Speed Gust Speed Precip Events Conditions
12:52 AM -7.1 °F -21.4 °F -14.1 °F 72% 30.58 in 10.0 mi WSW 6.9 mph - N/A   Clear
1:52 AM -7.1 °F -23.9 °F -13.0 °F 75% 30.55 in 10.0 mi SSW 9.2 mph - N/A   Clear
2:52 AM -7.1 °F -25.9 °F -11.9 °F 79% 30.53 in 10.0 mi SW 11.5 mph - N/A   Clear
3:52 AM -6.0 °F -23.6 °F -11.9 °F 75% 30.50 in 10.0 mi SSW 10.4 mph - N/A   Clear
4:52 AM -5.1 °F -23.5 °F -11.0 °F 76% 30.45 in 10.0 mi SSW 11.5 mph - N/A   Clear
5:52 AM -2.0 °F -20.5 °F -8.0 °F 76% 30.40 in 10.0 mi SSW 12.7 mph - N/A   Clear
6:52 AM 1.0 °F -19.3 °F -7.1 °F 69% 30.35 in 10.0 mi SSW 17.3 mph - N/A   Clear
7:52 AM 3.9 °F -18.1 °F -5.1 °F 66% 30.27 in 7.0 mi SSW 23.0 mph 31.1 mph N/A   Clear
8:52 AM 6.1 °F -15.2 °F -4.0 °F 63% 30.23 in 9.0 mi SSW 23.0 mph 31.1 mph N/A   Partly Cloudy
9:52 AM 10.0 °F -11.9 °F -0.9 °F 61% 30.16 in 5.0 mi SSW 28.8 mph 34.5 mph N/A   Haze
10:52 AM 12.9 °F -8.3 °F 1.0 °F 59% 30.05 in 8.0 mi South 29.9 mph 39.1 mph N/A   Overcast
11:52 AM 16.0 °F -1.7 °F 3.0 °F 57% 30.01 in 8.0 mi SSW 21.9 mph 38.0 mph N/A   Overcast
12:52 PM 17.1 °F -0.6 °F 5.0 °F 59% 29.96 in 5.0 mi SW 23.0 mph 34.5 mph N/A   Haze
1:52 PM 19.9 °F 3.9 °F 6.1 °F 55% 29.88 in 8.0 mi SSW 20.7 mph 27.6 mph N/A   Overcast
2:52 PM 21.0 °F 6.2 °F 7.0 °F 55% 29.86 in 10.0 mi SSW 18.4 mph 26.5 mph N/A   Overcast
3:52 PM 21.9 °F 7.3 °F 9.0 °F 58% 29.81 in 10.0 mi SSW 18.4 mph 27.6 mph N/A   Overcast
4:52 PM 23.0 °F 9.2 °F 10.0 °F 58% 29.78 in 10.0 mi SSW 17.3 mph 25.3 mph N/A   Overcast
5:52 PM 24.1 °F 10.1 °F 10.9 °F 57% 29.77 in 9.0 mi SSW 18.4 mph 28.8 mph N/A   Overcast
6:52 PM 24.1 °F 10.1 °F 15.1 °F 69% 29.74 in 10.0 mi SSW 18.4 mph - 0.00 in   Overcast
7:52 PM 27.0 °F 13.2 °F 16.0 °F 63% 29.68 in 3.0 mi SW 20.7 mph 32.2 mph 0.00 in Snow Light Snow
7:58 PM 27.0 °F 11.6 °F 17.1 °F 66% 29.64 in 1.8 mi SW 26.5 mph 38.0 mph 0.00 in Snow Light Snow
8:11 PM 25.0 °F 9.2 °F 19.9 °F 81% 29.64 in 0.8 mi SW 25.3 mph 33.4 mph 0.00 in Snow Light Snow
8:30 PM 25.0 °F 10.2 °F 21.0 °F 85% 29.61 in 1.5 mi SSW 21.9 mph 32.2 mph 0.00 in Snow Light Snow
8:38 PM 26.1 °F 12.0 °F 21.0 °F 81% 29.59 in 2.5 mi SSW 20.7 mph 29.9 mph 0.00 in Snow Light Snow
8:47 PM 26.6 °F 12.7 °F 21.2 °F 80% 29.59 in 4.0 mi SSW 20.7 mph 31.1 mph 0.00 in   Haze
8:52 PM 27.0 °F 12.5 °F 19.9 °F 75% 29.62 in 5.0 mi SW 23.0 mph 29.9 mph 0.00 in   Haze
9:30 PM 28.0 °F 13.0 °F 19.9 °F 72% 29.56 in 1.8 mi SW 26.5 mph 39.1 mph 0.00 in Snow Light Snow
9:52 PM 27.0 °F 13.2 °F 21.9 °F 81% 29.58 in 2.0 mi SW 20.7 mph 32.2 mph 0.00 in Snow Light Snow
10:00 PM 27.0 °F 12.8 °F 21.9 °F 81% 29.54 in 1.8 mi SW 21.9 mph - 0.00 in Snow Light Snow
10:15 PM 27.0 °F 12.8 °F 23.0 °F 85% 29.53 in 2.0 mi SW 21.9 mph 31.1 mph 0.00 in Snow Light Snow
10:24 PM 27.0 °F 12.8 °F 23.0 °F 85% 29.52 in 1.5 mi SW 21.9 mph 34.5 mph 0.00 in Snow Light Snow
10:50 PM 26.6 °F 11.4 °F 24.8 °F 93% 29.51 in 2.0 mi SW 25.3 mph 34.5 mph 0.00 in Snow Light Snow
10:52 PM 27.0 °F 12.2 °F 24.1 °F 89% 29.54 in 1.8 mi SW 24.2 mph 34.5 mph 0.00 in Snow Light Snow
11:06 PM 28.0 °F 14.3 °F 24.1 °F 85% 29.50 in 2.0 mi SW 21.9 mph 32.2 mph 0.00 in Snow Light Snow
11:16 PM 28.0 °F 13.9 °F 25.0 °F 88% 29.49 in 2.5 mi SW 23.0 mph 28.8 mph 0.00 in Snow Light Snow
11:45 PM 28.0 °F 13.9 °F 25.0 °F 88% 29.47 in 3.0 mi SW 23.0 mph - 0.00 in   Overcast
11:52 PM 28.0 °F 14.6 °F 25.0 °F 88% 29.49 in 2.0 mi WSW 20.7 mph 31.1 mph 0.00 in Snow Light Snow